owner,sensor,date,latitude,longitude,vertical_datum,sea_water_temperature,qcFlag 
SCCF RECON,ioos:station:SCCF:13:1,2010-11-01T00:00:00Z,26.5255,-82.0032,2.33,27.32,2 
SCCF RECON,ioos:station:SCCF:13:1,2010-11-01T01:00:00Z,26.5255,-82.0032,2.33,26.89,2 
SCCF RECON,ioos:station:SCCF:13:1,2010-11-01T02:00:00Z,26.5255,-82.0032,2.33,27.05,2 
SCCF RECON,ioos:station:SCCF:13:1,2010-11-01T03:00:00Z,26.5255,-82.0032,2.33,26.83,2 
SCCF RECON,ioos:station:SCCF:13:1,2010-11-01T04:00:00Z,26.5255,-82.0032,2.33,26.73,2 
SCCF RECON,ioos:station:SCCF:13:1,2010-11-01T05:00:00Z,26.5255,-82.0032,2.33,26.82,2 
SCCF RECON,ioos:station:SCCF:13:1,2010-11-01T06:00:00Z,26.5255,-82.0032,2.33,26.71,2 
SCCF RECON,ioos:station:SCCF:13:1,2010-11-01T07:00:00Z,26.5255,-82.0032,2.33,26.53,2 
SCCF RECON,ioos:station:SCCF:13:1,2010-11-01T08:00:00Z,26.5255,-82.0032,2.33,26.46,2 
SCCF RECON,ioos:station:SCCF:13:1,2010-11-01T09:00:00Z,26.5255,-82.0032,2.33,26.34,2 
SCCF RECON,ioos:station:SCCF:13:1,2010-11-01T10:00:00Z,26.5255,-82.0032,2.33,26.26,2 
SCCF RECON,ioos:station:SCCF:13:1,2010-11-01T11:00:00Z,26.5255,-82.0032,2.33,26.28,2 
SCCF RECON,ioos:station:SCCF:13:1,2010-11-01T12:00:00Z,26.5255,-82.0032,2.33,26.44,2 
SCCF RECON,ioos:station:SCCF:13:1,2010-11-01T13:00:00Z,26.5255,-82.0032,2.33,26.31,2 
SCCF RECON,ioos:station:SCCF:13:1,2010-11-01T14:00:00Z,26.5255,-82.0032,2.33,26.46,2 
SCCF RECON,ioos:station:SCCF:13:1,2010-11-01T15:00:00Z,26.5255,-82.0032,2.33,26.43,2 
SCCF RECON,ioos:station:SCCF:13:1,2010-11-01T16:00:00Z,26.5255,-82.0032,2.33,26.46,2 
SCCF RECON,ioos:station:SCCF:13:1,2010-11-01T17:00:00Z,26.5255,-82.0032,2.33,26.56,2 
SCCF RECON,ioos:station:SCCF:13:1,2010-11-01T18:00:00Z,26.5255,-82.0032,2.33,26.98,2 
SCCF RECON,ioos:station:SCCF:13:1,2010-11-01T19:00:00Z,26.5255,-82.0032,2.33,27.29,2 
SCCF RECON,ioos:station:SCCF:13:1,2010-11-01T20:00:00Z,26.5255,-82.0032,2.33,27.31,2 
SCCF RECON,ioos:station:SCCF:13:1,2010-11-01T21:00:00Z,26.5255,-82.0032,2.33,27.35,2 
SCCF RECON,ioos:station:SCCF:13:1,2010-11-01T22:00:00Z,26.5255,-82.0032,2.33,27.27,2 
SCCF RECON,ioos:station:SCCF:13:1,2010-11-01T23:00:00Z,26.5255,-82.0032,2.33,27.36,2 
SCCF RECON,ioos:station:SCCF:13:1,2010-11-02T00:00:00Z,26.5255,-82.0032,2.33,27.42,2 
SCCF RECON,ioos:station:SCCF:13:1,2010-11-02T01:00:00Z,26.5255,-82.0032,2.33,27.31,2 
SCCF RECON,ioos:station:SCCF:13:1,2010-11-02T02:00:00Z,26.5255,-82.0032,2.33,27.27,2 
SCCF RECON,ioos:station:SCCF:13:1,2010-11-02T03:00:00Z,26.5255,-82.0032,2.33,27.17,2 
SCCF RECON,ioos:station:SCCF:13:1,2010-11-02T04:00:00Z,26.5255,-82.0032,2.33,27.04,2 
SCCF RECON,ioos:station:SCCF:13:1,2010-11-02T05:00:00Z,26.5255,-82.0032,2.33,27.03,2 
SCCF RECON,ioos:station:SCCF:13:1,2010-11-02T06:00:00Z,26.5255,-82.0032,2.33,26.97,2 
SCCF RECON,ioos:station:SCCF:13:1,2010-11-02T07:00:00Z,26.5255,-82.0032,2.33,26.79,2 
SCCF RECON,ioos:station:SCCF:13:1,2010-11-02T08:00:00Z,26.5255,-82.0032,2.33,26.78,2 
SCCF RECON,ioos:station:SCCF:13:1,2010-11-02T09:00:00Z,26.5255,-82.0032,2.33,26.73,2 
SCCF RECON,ioos:station:SCCF:13:1,2010-11-02T10:00:00Z,26.5255,-82.0032,2.33,26.69,2 
SCCF RECON,ioos:station:SCCF:13:1,2010-11-02T11:00:00Z,26.5255,-82.0032,2.33,26.65,2 
SCCF RECON,ioos:station:SCCF:13:1,2010-11-02T12:00:00Z,26.5255,-82.0032,2.33,26.63,2 
SCCF RECON,ioos:station:SCCF:13:1,2010-11-02T13:00:00Z,26.5255,-82.0032,2.33,26.48,2 
SCCF RECON,ioos:station:SCCF:13:1,2010-11-02T14:00:00Z,26.5255,-82.0032,2.33,26.57,2 
SCCF RECON,ioos:station:SCCF:13:1,2010-11-02T15:00:00Z,26.5255,-82.0032,2.33,26.71,2 
SCCF RECON,ioos:station:SCCF:13:1,2010-11-02T16:00:00Z,26.5255,-82.0032,2.33,26.76,2 
SCCF RECON,ioos:station:SCCF:13:1,2010-11-02T17:00:00Z,26.5255,-82.0032,2.33,26.81,2 
SCCF RECON,ioos:station:SCCF:13:1,2010-11-02T18:00:00Z,26.5255,-82.0032,2.33,26.72,2 
SCCF RECON,ioos:station:SCCF:13:1,2010-11-02T19:00:00Z,26.5255,-82.0032,2.33,26.89,2 
SCCF RECON,ioos:station:SCCF:13:1,2010-11-02T20:00:00Z,26.5255,-82.0032,2.33,27.06,2 
SCCF RECON,ioos:station:SCCF:13:1,2010-11-02T21:00:00Z,26.5255,-82.0032,2.33,27.04,2 
SCCF RECON,ioos:station:SCCF:13:1,2010-11-02T22:00:00Z,26.5255,-82.0032,2.33,26.95,2 
SCCF RECON,ioos:station:SCCF:13:1,2010-11-02T23:00:00Z,26.5255,-82.0032,2.33,26.9,2 
SCCF RECON,ioos:station:SCCF:13:1,2010-11-03T00:00:00Z,26.5255,-82.0032,2.33,26.91,2 
SCCF RECON,ioos:station:SCCF:13:1,2010-11-03T01:00:00Z,26.5255,-82.0032,2.33,26.88,2 
SCCF RECON,ioos:station:SCCF:13:1,2010-11-03T02:00:00Z,26.5255,-82.0032,2.33,26.81,2 
SCCF RECON,ioos:station:SCCF:13:1,2010-11-03T03:00:00Z,26.5255,-82.0032,2.33,26.53,2 
SCCF RECON,ioos:station:SCCF:13:1,2010-11-03T04:00:00Z,26.5255,-82.0032,2.33,26.5,2 
SCCF RECON,ioos:station:SCCF:13:1,2010-11-03T05:00:00Z,26.5255,-82.0032,2.33,26.43,2 
SCCF RECON,ioos:station:SCCF:13:1,2010-11-03T06:00:00Z,26.5255,-82.0032,2.33,26.4,2 
SCCF RECON,ioos:station:SCCF:13:1,2010-11-03T07:00:00Z,26.5255,-82.0032,2.33,26.29,2 
SCCF RECON,ioos:station:SCCF:13:1,2010-11-03T08:00:00Z,26.5255,-82.0032,2.33,25.9,2 
SCCF RECON,ioos:station:SCCF:13:1,2010-11-03T09:00:00Z,26.5255,-82.0032,2.33,25.85,2 
SCCF RECON,ioos:station:SCCF:13:1,2010-11-03T10:00:00Z,26.5255,-82.0032,2.33,25.87,2 
SCCF RECON,ioos:station:SCCF:13:1,2010-11-03T11:00:00Z,26.5255,-82.0032,2.33,25.93,2 
SCCF RECON,ioos:station:SCCF:13:1,2010-11-03T12:00:00Z,26.5255,-82.0032,2.33,25.89,2 
SCCF RECON,ioos:station:SCCF:13:1,2010-11-03T13:00:00Z,26.5255,-82.0032,2.33,25.76,2 
SCCF RECON,ioos:station:SCCF:13:1,2010-11-03T14:00:00Z,26.5255,-82.0032,2.33,25.69,2 
SCCF RECON,ioos:station:SCCF:13:1,2010-11-03T15:00:00Z,26.5255,-82.0032,2.33,26.01,2 
SCCF RECON,ioos:station:SCCF:13:1,2010-11-03T16:00:00Z,26.5255,-82.0032,2.33,26.03,2 
SCCF RECON,ioos:station:SCCF:13:1,2010-11-03T17:00:00Z,26.5255,-82.0032,2.33,26.1,2 
SCCF RECON,ioos:station:SCCF:13:1,2010-11-03T18:00:00Z,26.5255,-82.0032,2.33,26.43,2 
SCCF RECON,ioos:station:SCCF:13:1,2010-11-03T19:00:00Z,26.5255,-82.0032,2.33,26.48,2 
SCCF RECON,ioos:station:SCCF:13:1,2010-11-03T20:00:00Z,26.5255,-82.0032,2.33,26.57,2 
SCCF RECON,ioos:station:SCCF:13:1,2010-11-03T21:00:00Z,26.5255,-82.0032,2.33,26.83,2 
SCCF RECON,ioos:station:SCCF:13:1,2010-11-03T22:00:00Z,26.5255,-82.0032,2.33,27.0,2 
SCCF RECON,ioos:station:SCCF:13:1,2010-11-03T23:00:00Z,26.5255,-82.0032,2.33,26.94,2 
SCCF RECON,ioos:station:SCCF:13:1,2010-11-04T00:00:00Z,26.5255,-82.0032,2.33,26.9,2 
SCCF RECON,ioos:station:SCCF:13:1,2010-11-04T01:00:00Z,26.5255,-82.0032,2.33,26.76,2 
SCCF RECON,ioos:station:SCCF:13:1,2010-11-04T02:00:00Z,26.5255,-82.0032,2.33,26.75,2 
SCCF RECON,ioos:station:SCCF:13:1,2010-11-04T03:00:00Z,26.5255,-82.0032,2.33,26.61,2 
SCCF RECON,ioos:station:SCCF:13:1,2010-11-04T04:00:00Z,26.5255,-82.0032,2.33,26.49,2 
SCCF RECON,ioos:station:SCCF:13:1,2010-11-04T05:00:00Z,26.5255,-82.0032,2.33,26.53,2 
SCCF RECON,ioos:station:SCCF:13:1,2010-11-04T06:00:00Z,26.5255,-82.0032,2.33,26.47,2 
SCCF RECON,ioos:station:SCCF:13:1,2010-11-04T07:00:00Z,26.5255,-82.0032,2.33,26.41,2 
SCCF RECON,ioos:station:SCCF:13:1,2010-11-04T08:00:00Z,26.5255,-82.0032,2.33,26.31,2 
SCCF RECON,ioos:station:SCCF:13:1,2010-11-04T09:00:00Z,26.5255,-82.0032,2.33,26.19,2 
SCCF RECON,ioos:station:SCCF:13:1,2010-11-04T10:00:00Z,26.5255,-82.0032,2.33,26.18,2 
SCCF RECON,ioos:station:SCCF:13:1,2010-11-04T11:00:00Z,26.5255,-82.0032,2.33,26.19,2 
SCCF RECON,ioos:station:SCCF:13:1,2010-11-04T12:00:00Z,26.5255,-82.0032,2.33,26.26,2 
SCCF RECON,ioos:station:SCCF:13:1,2010-11-04T13:00:00Z,26.5255,-82.0032,2.33,26.21,2 
SCCF RECON,ioos:station:SCCF:13:1,2010-11-04T14:00:00Z,26.5255,-82.0032,2.33,26.09,2 
SCCF RECON,ioos:station:SCCF:13:1,2010-11-04T15:00:00Z,26.5255,-82.0032,2.33,26.16,2 
SCCF RECON,ioos:station:SCCF:13:1,2010-11-04T16:00:00Z,26.5255,-82.0032,2.33,26.1,2 
SCCF RECON,ioos:station:SCCF:13:1,2010-11-04T17:00:00Z,26.5255,-82.0032,2.33,25.95,2 
SCCF RECON,ioos:station:SCCF:13:1,2010-11-04T18:00:00Z,26.5255,-82.0032,2.33,26.08,2 
SCCF RECON,ioos:station:SCCF:13:1,2010-11-04T19:00:00Z,26.5255,-82.0032,2.33,26.02,2 
SCCF RECON,ioos:station:SCCF:13:1,2010-11-04T20:00:00Z,26.5255,-82.0032,2.33,26.01,2 
SCCF RECON,ioos:station:SCCF:13:1,2010-11-04T21:00:00Z,26.5255,-82.0032,2.33,26.0,2 
SCCF RECON,ioos:station:SCCF:13:1,2010-11-04T22:00:00Z,26.5255,-82.0032,2.33,26.02,2 
SCCF RECON,ioos:station:SCCF:13:1,2010-11-04T23:00:00Z,26.5255,-82.0032,2.33,25.94,2 
SCCF RECON,ioos:station:SCCF:13:1,2010-11-05T00:00:00Z,26.5255,-82.0032,2.33,25.87,2 
SCCF RECON,ioos:station:SCCF:13:1,2010-11-05T01:00:00Z,26.5255,-82.0032,2.33,25.86,2 
SCCF RECON,ioos:station:SCCF:13:1,2010-11-05T02:00:00Z,26.5255,-82.0032,2.33,25.74,2 
SCCF RECON,ioos:station:SCCF:13:1,2010-11-05T03:00:00Z,26.5255,-82.0032,2.33,25.71,2 
SCCF RECON,ioos:station:SCCF:13:1,2010-11-05T04:00:00Z,26.5255,-82.0032,2.33,25.67,2 
SCCF RECON,ioos:station:SCCF:13:1,2010-11-05T05:00:00Z,26.5255,-82.0032,2.33,25.61,2 
SCCF RECON,ioos:station:SCCF:13:1,2010-11-05T06:00:00Z,26.5255,-82.0032,2.33,25.52,2 
SCCF RECON,ioos:station:SCCF:13:1,2010-11-05T07:00:00Z,26.5255,-82.0032,2.33,25.5,2 
SCCF RECON,ioos:station:SCCF:13:1,2010-11-05T08:00:00Z,26.5255,-82.0032,2.33,25.24,2 
SCCF RECON,ioos:station:SCCF:13:1,2010-11-05T09:00:00Z,26.5255,-82.0032,2.33,25.11,2 
SCCF RECON,ioos:station:SCCF:13:1,2010-11-05T10:00:00Z,26.5255,-82.0032,2.33,24.94,2 
SCCF RECON,ioos:station:SCCF:13:1,2010-11-05T11:00:00Z,26.5255,-82.0032,2.33,24.72,2 
SCCF RECON,ioos:station:SCCF:13:1,2010-11-05T12:00:00Z,26.5255,-82.0032,2.33,24.6,2 
SCCF RECON,ioos:station:SCCF:13:1,2010-11-05T13:00:00Z,26.5255,-82.0032,2.33,24.5,2 
SCCF RECON,ioos:station:SCCF:13:1,2010-11-05T14:00:00Z,26.5255,-82.0032,2.33,24.38,2 
SCCF RECON,ioos:station:SCCF:13:1,2010-11-05T15:00:00Z,26.5255,-82.0032,2.33,24.28,2 
SCCF RECON,ioos:station:SCCF:13:1,2010-11-05T16:00:00Z,26.5255,-82.0032,2.33,24.28,2 
SCCF RECON,ioos:station:SCCF:13:1,2010-11-05T17:00:00Z,26.5255,-82.0032,2.33,24.11,2 
SCCF RECON,ioos:station:SCCF:13:1,2010-11-05T18:00:00Z,26.5255,-82.0032,2.33,24.06,2 
SCCF RECON,ioos:station:SCCF:13:1,2010-11-05T19:00:00Z,26.5255,-82.0032,2.33,24.02,2 
SCCF RECON,ioos:station:SCCF:13:1,2010-11-05T20:00:00Z,26.5255,-82.0032,2.33,24.22,2 
SCCF RECON,ioos:station:SCCF:13:1,2010-11-05T21:00:00Z,26.5255,-82.0032,2.33,24.24,2 
SCCF RECON,ioos:station:SCCF:13:1,2010-11-05T22:00:00Z,26.5255,-82.0032,2.33,23.97,2 
SCCF RECON,ioos:station:SCCF:13:1,2010-11-05T23:00:00Z,26.5255,-82.0032,2.33,23.75,2 
SCCF RECON,ioos:station:SCCF:13:1,2010-11-06T00:00:00Z,26.5255,-82.0032,2.33,23.56,2 
SCCF RECON,ioos:station:SCCF:13:1,2010-11-06T01:00:00Z,26.5255,-82.0032,2.33,23.45,2 
SCCF RECON,ioos:station:SCCF:13:1,2010-11-06T02:00:00Z,26.5255,-82.0032,2.33,23.22,2 
SCCF RECON,ioos:station:SCCF:13:1,2010-11-06T03:00:00Z,26.5255,-82.0032,2.33,23.29,2 
SCCF RECON,ioos:station:SCCF:13:1,2010-11-06T04:00:00Z,26.5255,-82.0032,2.33,22.95,2 
SCCF RECON,ioos:station:SCCF:13:1,2010-11-06T05:00:00Z,26.5255,-82.0032,2.33,22.58,2 
SCCF RECON,ioos:station:SCCF:13:1,2010-11-06T06:00:00Z,26.5255,-82.0032,2.33,22.45,2 
SCCF RECON,ioos:station:SCCF:13:1,2010-11-06T07:00:00Z,26.5255,-82.0032,2.33,22.26,2 
SCCF RECON,ioos:station:SCCF:13:1,2010-11-06T08:00:00Z,26.5255,-82.0032,2.33,22.22,2 
SCCF RECON,ioos:station:SCCF:13:1,2010-11-06T09:00:00Z,26.5255,-82.0032,2.33,22.04,2 
SCCF RECON,ioos:station:SCCF:13:1,2010-11-06T10:00:00Z,26.5255,-82.0032,2.33,21.58,2 
SCCF RECON,ioos:station:SCCF:13:1,2010-11-06T11:00:00Z,26.5255,-82.0032,2.33,21.68,2 
SCCF RECON,ioos:station:SCCF:13:1,2010-11-06T12:00:00Z,26.5255,-82.0032,2.33,21.44,2 
SCCF RECON,ioos:station:SCCF:13:1,2010-11-06T13:00:00Z,26.5255,-82.0032,2.33,21.51,2 
SCCF RECON,ioos:station:SCCF:13:1,2010-11-06T14:00:00Z,26.5255,-82.0032,2.33,21.54,2 
SCCF RECON,ioos:station:SCCF:13:1,2010-11-06T15:00:00Z,26.5255,-82.0032,2.33,21.51,2 
SCCF RECON,ioos:station:SCCF:13:1,2010-11-06T16:00:00Z,26.5255,-82.0032,2.33,21.24,2 
SCCF RECON,ioos:station:SCCF:13:1,2010-11-06T17:00:00Z,26.5255,-82.0032,2.33,21.03,2 
SCCF RECON,ioos:station:SCCF:13:1,2010-11-06T18:00:00Z,26.5255,-82.0032,2.33,20.55,2 
SCCF RECON,ioos:station:SCCF:13:1,2010-11-06T19:00:00Z,26.5255,-82.0032,2.33,21.3,2 
SCCF RECON,ioos:station:SCCF:13:1,2010-11-06T20:00:00Z,26.5255,-82.0032,2.33,21.11,2 
SCCF RECON,ioos:station:SCCF:13:1,2010-11-06T21:00:00Z,26.5255,-82.0032,2.33,20.99,2 
SCCF RECON,ioos:station:SCCF:13:1,2010-11-06T22:00:00Z,26.5255,-82.0032,2.33,21.19,2 
SCCF RECON,ioos:station:SCCF:13:1,2010-11-06T23:00:00Z,26.5255,-82.0032,2.33,21.16,2 
SCCF RECON,ioos:station:SCCF:13:1,2010-11-07T00:00:00Z,26.5255,-82.0032,2.33,21.05,2 
SCCF RECON,ioos:station:SCCF:13:1,2010-11-07T01:00:00Z,26.5255,-82.0032,2.33,20.94,2 
SCCF RECON,ioos:station:SCCF:13:1,2010-11-07T02:00:00Z,26.5255,-82.0032,2.33,20.94,2 
SCCF RECON,ioos:station:SCCF:13:1,2010-11-07T03:00:00Z,26.5255,-82.0032,2.33,20.37,2 
SCCF RECON,ioos:station:SCCF:13:1,2010-11-07T04:00:00Z,26.5255,-82.0032,2.33,20.45,2 
SCCF RECON,ioos:station:SCCF:13:1,2010-11-07T05:00:00Z,26.5255,-82.0032,2.33,20.28,2 
SCCF RECON,ioos:station:SCCF:13:1,2010-11-07T06:00:00Z,26.5255,-82.0032,2.33,20.02,2 
SCCF RECON,ioos:station:SCCF:13:1,2010-11-07T07:00:00Z,26.5255,-82.0032,2.33,19.84,2 
SCCF RECON,ioos:station:SCCF:13:1,2010-11-07T08:00:00Z,26.5255,-82.0032,2.33,19.92,2 
SCCF RECON,ioos:station:SCCF:13:1,2010-11-07T09:00:00Z,26.5255,-82.0032,2.33,19.59,2 
SCCF RECON,ioos:station:SCCF:13:1,2010-11-07T10:00:00Z,26.5255,-82.0032,2.33,19.17,2 
SCCF RECON,ioos:station:SCCF:13:1,2010-11-07T11:00:00Z,26.5255,-82.0032,2.33,18.9,2 
SCCF RECON,ioos:station:SCCF:13:1,2010-11-07T12:00:00Z,26.5255,-82.0032,2.33,19.01,2 
SCCF RECON,ioos:station:SCCF:13:1,2010-11-07T13:00:00Z,26.5255,-82.0032,2.33,19.04,2 
SCCF RECON,ioos:station:SCCF:13:1,2010-11-07T14:00:00Z,26.5255,-82.0032,2.33,19.35,2 
SCCF RECON,ioos:station:SCCF:13:1,2010-11-07T15:00:00Z,26.5255,-82.0032,2.33,19.47,2 
SCCF RECON,ioos:station:SCCF:13:1,2010-11-07T16:00:00Z,26.5255,-82.0032,2.33,19.51,2 
SCCF RECON,ioos:station:SCCF:13:1,2010-11-07T17:00:00Z,26.5255,-82.0032,2.33,19.13,2 
SCCF RECON,ioos:station:SCCF:13:1,2010-11-07T18:00:00Z,26.5255,-82.0032,2.33,18.67,2 
SCCF RECON,ioos:station:SCCF:13:1,2010-11-07T19:00:00Z,26.5255,-82.0032,2.33,19.17,2 
SCCF RECON,ioos:station:SCCF:13:1,2010-11-07T20:00:00Z,26.5255,-82.0032,2.33,18.94,2 
SCCF RECON,ioos:station:SCCF:13:1,2010-11-07T21:00:00Z,26.5255,-82.0032,2.33,19.14,2 
SCCF RECON,ioos:station:SCCF:13:1,2010-11-07T22:00:00Z,26.5255,-82.0032,2.33,19.16,2 
SCCF RECON,ioos:station:SCCF:13:1,2010-11-07T23:00:00Z,26.5255,-82.0032,2.33,19.1,2 
SCCF RECON,ioos:station:SCCF:13:1,2010-11-08T00:00:00Z,26.5255,-82.0032,2.33,19.11,2 
SCCF RECON,ioos:station:SCCF:13:1,2010-11-08T01:00:00Z,26.5255,-82.0032,2.33,19.08,2 
SCCF RECON,ioos:station:SCCF:13:1,2010-11-08T02:00:00Z,26.5255,-82.0032,2.33,19.06,2 
SCCF RECON,ioos:station:SCCF:13:1,2010-11-08T03:00:00Z,26.5255,-82.0032,2.33,18.95,2 
SCCF RECON,ioos:station:SCCF:13:1,2010-11-08T04:00:00Z,26.5255,-82.0032,2.33,18.59,2 
SCCF RECON,ioos:station:SCCF:13:1,2010-11-08T05:00:00Z,26.5255,-82.0032,2.33,18.73,2 
SCCF RECON,ioos:station:SCCF:13:1,2010-11-08T06:00:00Z,26.5255,-82.0032,2.33,18.73,2 
SCCF RECON,ioos:station:SCCF:13:1,2010-11-08T07:00:00Z,26.5255,-82.0032,2.33,18.66,2 
SCCF RECON,ioos:station:SCCF:13:1,2010-11-08T08:00:00Z,26.5255,-82.0032,2.33,18.7,2 
SCCF RECON,ioos:station:SCCF:13:1,2010-11-08T09:00:00Z,26.5255,-82.0032,2.33,18.49,2 
SCCF RECON,ioos:station:SCCF:13:1,2010-11-08T10:00:00Z,26.5255,-82.0032,2.33,18.0,2 
SCCF RECON,ioos:station:SCCF:13:1,2010-11-08T11:00:00Z,26.5255,-82.0032,2.33,17.71,2 
SCCF RECON,ioos:station:SCCF:13:1,2010-11-08T12:00:00Z,26.5255,-82.0032,2.33,17.85,2 
SCCF RECON,ioos:station:SCCF:13:1,2010-11-08T13:00:00Z,26.5255,-82.0032,2.33,17.8,2 
SCCF RECON,ioos:station:SCCF:13:1,2010-11-08T14:00:00Z,26.5255,-82.0032,2.33,18.06,2 
SCCF RECON,ioos:station:SCCF:13:1,2010-11-08T15:00:00Z,26.5255,-82.0032,2.33,18.34,2 
SCCF RECON,ioos:station:SCCF:13:1,2010-11-08T16:00:00Z,26.5255,-82.0032,2.33,18.57,2 
SCCF RECON,ioos:station:SCCF:13:1,2010-11-08T17:00:00Z,26.5255,-82.0032,2.33,18.65,2 
SCCF RECON,ioos:station:SCCF:13:1,2010-11-08T18:00:00Z,26.5255,-82.0032,2.33,18.42,2 
SCCF RECON,ioos:station:SCCF:13:1,2010-11-08T19:00:00Z,26.5255,-82.0032,2.33,18.57,2 
SCCF RECON,ioos:station:SCCF:13:1,2010-11-08T20:00:00Z,26.5255,-82.0032,2.33,18.68,2 
SCCF RECON,ioos:station:SCCF:13:1,2010-11-08T21:00:00Z,26.5255,-82.0032,2.33,18.68,2 
SCCF RECON,ioos:station:SCCF:13:1,2010-11-08T22:00:00Z,26.5255,-82.0032,2.33,18.56,2 
SCCF RECON,ioos:station:SCCF:13:1,2010-11-08T23:00:00Z,26.5255,-82.0032,2.33,18.56,2 
SCCF RECON,ioos:station:SCCF:13:1,2010-11-09T00:00:00Z,26.5255,-82.0032,2.33,18.65,2 
SCCF RECON,ioos:station:SCCF:13:1,2010-11-09T01:00:00Z,26.5255,-82.0032,2.33,18.72,2 
SCCF RECON,ioos:station:SCCF:13:1,2010-11-09T02:00:00Z,26.5255,-82.0032,2.33,18.65,2 
SCCF RECON,ioos:station:SCCF:13:1,2010-11-09T03:00:00Z,26.5255,-82.0032,2.33,18.55,2 
SCCF RECON,ioos:station:SCCF:13:1,2010-11-09T04:00:00Z,26.5255,-82.0032,2.33,18.47,2 
SCCF RECON,ioos:station:SCCF:13:1,2010-11-09T05:00:00Z,26.5255,-82.0032,2.33,18.49,2 
SCCF RECON,ioos:station:SCCF:13:1,2010-11-09T06:00:00Z,26.5255,-82.0032,2.33,18.4,2 
SCCF RECON,ioos:station:SCCF:13:1,2010-11-09T07:00:00Z,26.5255,-82.0032,2.33,18.46,2 
SCCF RECON,ioos:station:SCCF:13:1,2010-11-09T08:00:00Z,26.5255,-82.0032,2.33,18.56,2 
SCCF RECON,ioos:station:SCCF:13:1,2010-11-09T09:00:00Z,26.5255,-82.0032,2.33,18.64,2 
SCCF RECON,ioos:station:SCCF:13:1,2010-11-09T10:00:00Z,26.5255,-82.0032,2.33,18.56,2 
SCCF RECON,ioos:station:SCCF:13:1,2010-11-09T11:00:00Z,26.5255,-82.0032,2.33,18.23,2 
SCCF RECON,ioos:station:SCCF:13:1,2010-11-09T12:00:00Z,26.5255,-82.0032,2.33,17.82,2 
SCCF RECON,ioos:station:SCCF:13:1,2010-11-09T13:00:00Z,26.5255,-82.0032,2.33,17.79,2 
SCCF RECON,ioos:station:SCCF:13:1,2010-11-09T14:00:00Z,26.5255,-82.0032,2.33,18.02,2 
SCCF RECON,ioos:station:SCCF:13:1,2010-11-09T15:00:00Z,26.5255,-82.0032,2.33,18.38,2 
SCCF RECON,ioos:station:SCCF:13:1,2010-11-09T16:00:00Z,26.5255,-82.0032,2.33,18.63,2 
SCCF RECON,ioos:station:SCCF:13:1,2010-11-09T17:00:00Z,26.5255,-82.0032,2.33,18.87,2 
SCCF RECON,ioos:station:SCCF:13:1,2010-11-09T18:00:00Z,26.5255,-82.0032,2.33,19.03,2 
SCCF RECON,ioos:station:SCCF:13:1,2010-11-09T19:00:00Z,26.5255,-82.0032,2.33,19.12,2 
SCCF RECON,ioos:station:SCCF:13:1,2010-11-09T20:00:00Z,26.5255,-82.0032,2.33,19.0,2 
SCCF RECON,ioos:station:SCCF:13:1,2010-11-09T21:00:00Z,26.5255,-82.0032,2.33,19.07,2 
SCCF RECON,ioos:station:SCCF:13:1,2010-11-09T22:00:00Z,26.5255,-82.0032,2.33,19.04,2 
SCCF RECON,ioos:station:SCCF:13:1,2010-11-09T23:00:00Z,26.5255,-82.0032,2.33,19.05,2 
SCCF RECON,ioos:station:SCCF:13:1,2010-11-10T00:00:00Z,26.5255,-82.0032,2.33,19.05,2 
SCCF RECON,ioos:station:SCCF:13:1,2010-11-10T01:00:00Z,26.5255,-82.0032,2.33,19.05,2 
SCCF RECON,ioos:station:SCCF:13:1,2010-11-10T02:00:00Z,26.5255,-82.0032,2.33,19.07,2 
SCCF RECON,ioos:station:SCCF:13:1,2010-11-10T03:00:00Z,26.5255,-82.0032,2.33,19.02,2 
SCCF RECON,ioos:station:SCCF:13:1,2010-11-10T04:00:00Z,26.5255,-82.0032,2.33,19.02,2 
SCCF RECON,ioos:station:SCCF:13:1,2010-11-10T05:00:00Z,26.5255,-82.0032,2.33,18.9,2 
SCCF RECON,ioos:station:SCCF:13:1,2010-11-10T06:00:00Z,26.5255,-82.0032,2.33,18.8,2 
SCCF RECON,ioos:station:SCCF:13:1,2010-11-10T07:00:00Z,26.5255,-82.0032,2.33,18.78,2 
SCCF RECON,ioos:station:SCCF:13:1,2010-11-10T08:00:00Z,26.5255,-82.0032,2.33,18.73,2 
SCCF RECON,ioos:station:SCCF:13:1,2010-11-10T09:00:00Z,26.5255,-82.0032,2.33,18.77,2 
SCCF RECON,ioos:station:SCCF:13:1,2010-11-10T10:00:00Z,26.5255,-82.0032,2.33,18.91,2 
SCCF RECON,ioos:station:SCCF:13:1,2010-11-10T11:00:00Z,26.5255,-82.0032,2.33,18.73,2 
SCCF RECON,ioos:station:SCCF:13:1,2010-11-10T12:00:00Z,26.5255,-82.0032,2.33,18.16,2 
SCCF RECON,ioos:station:SCCF:13:1,2010-11-10T13:00:00Z,26.5255,-82.0032,2.33,18.3,2 
SCCF RECON,ioos:station:SCCF:13:1,2010-11-10T14:00:00Z,26.5255,-82.0032,2.33,18.34,2 
SCCF RECON,ioos:station:SCCF:13:1,2010-11-10T15:00:00Z,26.5255,-82.0032,2.33,18.72,2 
SCCF RECON,ioos:station:SCCF:13:1,2010-11-10T16:00:00Z,26.5255,-82.0032,2.33,19.06,2 
SCCF RECON,ioos:station:SCCF:13:1,2010-11-10T17:00:00Z,26.5255,-82.0032,2.33,19.36,2 
SCCF RECON,ioos:station:SCCF:13:1,2010-11-10T18:00:00Z,26.5255,-82.0032,2.33,19.6,2 
SCCF RECON,ioos:station:SCCF:13:1,2010-11-10T19:00:00Z,26.5255,-82.0032,2.33,19.58,2 
SCCF RECON,ioos:station:SCCF:13:1,2010-11-10T20:00:00Z,26.5255,-82.0032,2.33,19.61,2 
SCCF RECON,ioos:station:SCCF:13:1,2010-11-10T21:00:00Z,26.5255,-82.0032,2.33,19.51,2 
SCCF RECON,ioos:station:SCCF:13:1,2010-11-10T22:00:00Z,26.5255,-82.0032,2.33,19.46,2 
SCCF RECON,ioos:station:SCCF:13:1,2010-11-10T23:00:00Z,26.5255,-82.0032,2.33,19.65,2 
SCCF RECON,ioos:station:SCCF:13:1,2010-11-11T00:00:00Z,26.5255,-82.0032,2.33,19.61,2 
SCCF RECON,ioos:station:SCCF:13:1,2010-11-11T01:00:00Z,26.5255,-82.0032,2.33,19.58,2 
SCCF RECON,ioos:station:SCCF:13:1,2010-11-11T02:00:00Z,26.5255,-82.0032,2.33,19.64,2 
SCCF RECON,ioos:station:SCCF:13:1,2010-11-11T03:00:00Z,26.5255,-82.0032,2.33,19.61,2 
SCCF RECON,ioos:station:SCCF:13:1,2010-11-11T04:00:00Z,26.5255,-82.0032,2.33,19.61,2 
SCCF RECON,ioos:station:SCCF:13:1,2010-11-11T05:00:00Z,26.5255,-82.0032,2.33,19.6,2 
SCCF RECON,ioos:station:SCCF:13:1,2010-11-11T06:00:00Z,26.5255,-82.0032,2.33,19.52,2 
SCCF RECON,ioos:station:SCCF:13:1,2010-11-11T07:00:00Z,26.5255,-82.0032,2.33,19.33,2 
SCCF RECON,ioos:station:SCCF:13:1,2010-11-11T08:00:00Z,26.5255,-82.0032,2.33,19.2,2 
SCCF RECON,ioos:station:SCCF:13:1,2010-11-11T09:00:00Z,26.5255,-82.0032,2.33,19.28,2 
SCCF RECON,ioos:station:SCCF:13:1,2010-11-11T10:00:00Z,26.5255,-82.0032,2.33,19.18,2 
SCCF RECON,ioos:station:SCCF:13:1,2010-11-11T11:00:00Z,26.5255,-82.0032,2.33,19.19,2 
SCCF RECON,ioos:station:SCCF:13:1,2010-11-11T12:00:00Z,26.5255,-82.0032,2.33,19.03,2 
SCCF RECON,ioos:station:SCCF:13:1,2010-11-11T13:00:00Z,26.5255,-82.0032,2.33,18.87,2 
SCCF RECON,ioos:station:SCCF:13:1,2010-11-11T14:00:00Z,26.5255,-82.0032,2.33,19.01,2 
SCCF RECON,ioos:station:SCCF:13:1,2010-11-11T15:00:00Z,26.5255,-82.0032,2.33,19.25,2 
SCCF RECON,ioos:station:SCCF:13:1,2010-11-11T16:00:00Z,26.5255,-82.0032,2.33,19.64,2 
SCCF RECON,ioos:station:SCCF:13:1,2010-11-11T17:00:00Z,26.5255,-82.0032,2.33,20.0,2 
SCCF RECON,ioos:station:SCCF:13:1,2010-11-11T18:00:00Z,26.5255,-82.0032,2.33,20.25,2 
SCCF RECON,ioos:station:SCCF:13:1,2010-11-11T19:00:00Z,26.5255,-82.0032,2.33,20.42,2 
SCCF RECON,ioos:station:SCCF:13:1,2010-11-11T20:00:00Z,26.5255,-82.0032,2.33,20.59,2 
SCCF RECON,ioos:station:SCCF:13:1,2010-11-11T21:00:00Z,26.5255,-82.0032,2.33,20.37,2 
SCCF RECON,ioos:station:SCCF:13:1,2010-11-11T22:00:00Z,26.5255,-82.0032,2.33,20.13,2 
SCCF RECON,ioos:station:SCCF:13:1,2010-11-11T23:00:00Z,26.5255,-82.0032,2.33,20.16,2 
SCCF RECON,ioos:station:SCCF:13:1,2010-11-12T00:00:00Z,26.5255,-82.0032,2.33,20.2,2 
SCCF RECON,ioos:station:SCCF:13:1,2010-11-12T01:00:00Z,26.5255,-82.0032,2.33,20.08,2 
SCCF RECON,ioos:station:SCCF:13:1,2010-11-12T02:00:00Z,26.5255,-82.0032,2.33,20.11,2 
SCCF RECON,ioos:station:SCCF:13:1,2010-11-12T03:00:00Z,26.5255,-82.0032,2.33,20.11,2 
SCCF RECON,ioos:station:SCCF:13:1,2010-11-12T04:00:00Z,26.5255,-82.0032,2.33,20.12,2 
SCCF RECON,ioos:station:SCCF:13:1,2010-11-12T05:00:00Z,26.5255,-82.0032,2.33,20.06,2 
SCCF RECON,ioos:station:SCCF:13:1,2010-11-12T06:00:00Z,26.5255,-82.0032,2.33,20.07,2 
SCCF RECON,ioos:station:SCCF:13:1,2010-11-12T07:00:00Z,26.5255,-82.0032,2.33,20.1,2 
SCCF RECON,ioos:station:SCCF:13:1,2010-11-12T08:00:00Z,26.5255,-82.0032,2.33,19.97,2 
SCCF RECON,ioos:station:SCCF:13:1,2010-11-12T09:00:00Z,26.5255,-82.0032,2.33,19.87,2 
SCCF RECON,ioos:station:SCCF:13:1,2010-11-12T10:00:00Z,26.5255,-82.0032,2.33,19.71,2 
SCCF RECON,ioos:station:SCCF:13:1,2010-11-12T11:00:00Z,26.5255,-82.0032,2.33,19.74,2 
SCCF RECON,ioos:station:SCCF:13:1,2010-11-12T12:00:00Z,26.5255,-82.0032,2.33,19.82,2 
SCCF RECON,ioos:station:SCCF:13:1,2010-11-12T13:00:00Z,26.5255,-82.0032,2.33,19.68,2 